IBE04DB LEXJ-LEMD

Flight info

Callsign IBE04DB
Flight time N/A
Altitude 29000
Route TITAN N864 NONTU
Aircraft A319/M-SDE3FGHIRWY/LB1

Departure

Time 2026-04-26 18:19
Airport Seve Ballesteros-Santander Airport (LEXJ)

Arrival

Time N/A
Airport Adolfo Suárez Madrid–Barajas Airport (LEMD)
Time Latitude Longitude Altitude Speed Heading
2026-04-26 18:07 43.42379 -3.82303 19 ft 0 kts 234°
2026-04-26 18:14 43.42379 -3.82305 19 ft 0 kts 243°
2026-04-26 18:14 43.42379 -3.82306 19 ft 0 kts 253°
2026-04-26 18:15 43.42387 -3.82308 20 ft 1 kts 351°
2026-04-26 18:15 43.42406 -3.82256 20 ft 12 kts 96°
2026-04-26 18:15 43.42388 -3.82145 19 ft 11 kts 104°
2026-04-26 18:15 43.42450 -3.82084 19 ft 15 kts 21°
2026-04-26 18:16 43.42530 -3.81975 19 ft 19 kts 102°
2026-04-26 18:16 43.42421 -3.81568 19 ft 24 kts 110°
2026-04-26 18:16 43.42382 -3.81361 19 ft 19 kts 59°
2026-04-26 18:17 43.42488 -3.81282 22 ft 16 kts 44°
2026-04-26 18:17 43.42467 -3.81113 22 ft 24 kts 110°
2026-04-26 18:17 43.42401 -3.80861 23 ft 29 kts 110°
2026-04-26 18:17 43.42318 -3.80642 19 ft 17 kts 80°
2026-04-26 18:18 43.42351 -3.80672 18 ft 12 kts 292°
2026-04-26 18:18 43.42468 -3.81107 22 ft 86 kts 290°
2026-04-26 18:18 43.42746 -3.82147 19 ft 143 kts 290°
2026-04-26 18:18 43.43123 -3.83549 396 ft 156 kts 291°
2026-04-26 18:19 43.43501 -3.84910 1055 ft 154 kts 291°
2026-04-26 18:19 43.43881 -3.86281 1710 ft 154 kts 291°
2026-04-26 18:19 43.44287 -3.87753 2118 ft 173 kts 290°
2026-04-26 18:19 43.44741 -3.89398 2447 ft 195 kts 290°
2026-04-26 18:20 43.45242 -3.91218 2885 ft 208 kts 290°
2026-04-26 18:20 43.45753 -3.93081 3463 ft 213 kts 291°
2026-04-26 18:20 43.46280 -3.95005 4064 ft 216 kts 291°
2026-04-26 18:20 43.46636 -3.96317 4488 ft 217 kts 291°
2026-04-26 18:21 43.47368 -3.99016 4991 ft 244 kts 291°
2026-04-26 18:21 43.47992 -4.01312 5434 ft 266 kts 291°
2026-04-26 18:21 43.48610 -4.03750 6247 ft 273 kts 284°
2026-04-26 18:21 43.48627 -4.06369 7117 ft 278 kts 257°
2026-04-26 18:22 43.47792 -4.08764 7990 ft 282 kts 231°
2026-04-26 18:22 43.46238 -4.10412 8877 ft 286 kts 204°
2026-04-26 18:22 43.44280 -4.10915 9762 ft 291 kts 178°
2026-04-26 18:22 43.42266 -4.10574 10613 ft 294 kts 169°
2026-04-26 18:23 43.40221 -4.09831 11032 ft 315 kts 162°
2026-04-26 18:23 43.38126 -4.08604 11268 ft 340 kts 153°
2026-04-26 18:23 43.36080 -4.06836 11733 ft 353 kts 143°
2026-04-26 18:23 43.34220 -4.04584 12433 ft 359 kts 135°
2026-04-26 18:24 43.32628 -4.01913 13181 ft 364 kts 125°
2026-04-26 18:24 43.31135 -3.99090 13893 ft 367 kts 132°
2026-04-26 18:24 43.29233 -3.96751 14547 ft 369 kts 146°
2026-04-26 18:24 43.26965 -3.95085 15191 ft 371 kts 160°
2026-04-26 18:25 43.24487 -3.94087 15859 ft 372 kts 170°
2026-04-26 18:25 43.21906 -3.93709 16507 ft 374 kts 180°
2026-04-26 18:25 43.19305 -3.93957 17139 ft 377 kts 187°
2026-04-26 18:25 43.16691 -3.94351 17767 ft 380 kts 187°
2026-04-26 18:26 43.14046 -3.94752 18414 ft 383 kts 187°
2026-04-26 18:26 43.11387 -3.95153 18975 ft 386 kts 187°
2026-04-26 18:26 43.08711 -3.95556 19562 ft 388 kts 187°
2026-04-26 18:26 43.06016 -3.95961 20112 ft 392 kts 187°
2026-04-26 18:27 43.03332 -3.96365 20628 ft 395 kts 187°
2026-04-26 18:27 43.00591 -3.96777 21183 ft 398 kts 187°
2026-04-26 18:27 42.97837 -3.97191 21753 ft 399 kts 187°
2026-04-26 18:27 42.95063 -3.97609 22246 ft 403 kts 187°
2026-04-26 18:28 42.92264 -3.98024 22706 ft 407 kts 187°
2026-04-26 18:28 42.89437 -3.98435 23202 ft 409 kts 187°
2026-04-26 18:28 42.86597 -3.98844 23715 ft 412 kts 187°
2026-04-26 18:28 42.83738 -3.99258 24116 ft 415 kts 187°
2026-04-26 18:29 42.80859 -3.99678 24484 ft 418 kts 187°
2026-04-26 18:29 42.77960 -4.00101 24869 ft 420 kts 187°
2026-04-26 18:29 42.75050 -4.00523 25288 ft 421 kts 187°
2026-04-26 18:29 42.72123 -4.00949 25656 ft 424 kts 187°
2026-04-26 18:30 42.69180 -4.01381 26007 ft 427 kts 187°
2026-04-26 18:30 42.66224 -4.01814 26384 ft 429 kts 187°
2026-04-26 18:30 42.63249 -4.02247 26787 ft 431 kts 187°
2026-04-26 18:30 42.60257 -4.02681 27125 ft 434 kts 187°
2026-04-26 18:31 42.57247 -4.03114 27467 ft 437 kts 187°
2026-04-26 18:31 42.54251 -4.03543 27816 ft 439 kts 187°
2026-04-26 18:31 42.51205 -4.03981 28132 ft 442 kts 187°
2026-04-26 18:31 42.48131 -4.04426 28434 ft 446 kts 186°
2026-04-26 18:32 42.45041 -4.04875 28749 ft 448 kts 186°
2026-04-26 18:32 42.41932 -4.05323 29062 ft 450 kts 187°
2026-04-26 18:32 42.35736 -4.06207 29143 ft 444 kts 187°
2026-04-26 18:33 42.29583 -4.07089 29146 ft 451 kts 186°
2026-04-26 18:33 42.23206 -4.08015 29143 ft 469 kts 186°
2026-04-26 18:34 42.16687 -4.08938 29139 ft 476 kts 186°
2026-04-26 18:34 42.10079 -4.09863 29138 ft 479 kts 186°
2026-04-26 18:35 42.03446 -4.10803 29136 ft 479 kts 186°
2026-04-26 18:35 41.96804 -4.11667 29136 ft 480 kts 185°
2026-04-26 18:36 41.90154 -4.12392 29136 ft 479 kts 185°
2026-04-26 18:36 41.83505 -4.13103 29129 ft 479 kts 185°
2026-04-26 18:37 41.76857 -4.13846 29127 ft 479 kts 185°
2026-04-26 18:37 41.70215 -4.14612 29126 ft 479 kts 185°
2026-04-26 18:38 41.63563 -4.15373 29122 ft 480 kts 185°
2026-04-26 18:38 41.56911 -4.16121 29126 ft 480 kts 185°
2026-04-26 18:39 41.50255 -4.16873 29128 ft 480 kts 185°
2026-04-26 18:39 41.43640 -4.17624 29124 ft 481 kts 185°
2026-04-26 18:40 41.36973 -4.18371 29125 ft 481 kts 185°
2026-04-26 18:40 41.30295 -4.19124 29130 ft 482 kts 185°